Regional Weather Roundup
Issued by NWS Wakefield, VA

Home | Current Version | Previous Version | Graphics & Text | Print | Product List | Glossary On
Versions: 1 2 3 4 5 6 7 8 9 10 11 12 13 14 15 16 17 18 19 20 21 22 23 24 25 26 27 28 29 30 31 32 33 34 35 36 37 38 39 40 41 42 43 44 45 46 47 48 49 50
829
ASUS41 KAKQ 220815
RWRAKQ

REGIONAL WEATHER ROUNDUP
NATIONAL WEATHER SERVICE WAKEFIELD VA
300 AM EST WED NOV 22 2017

Note: "fair" indicates few or no clouds below 12,000 feet with no
significant weather and/or obstructions to visibility. * = Denotes
station may not report precipitation (e.g., rain,snow,etc.),
thunder or fog.

VAZ042-051-052>054-056-220900-
NORTHERN VIRGINIA

CITY           SKY/WX    TMP DP  RH WIND       PRES   REMARKS
WASH NATIONAL  CLOUDY    53  46  77 S8        29.94F
DULLES         CLOUDY    53  46  77 S9        29.92F
FORT BELVOIR   MOCLDY    47  43  85 CALM      29.94F
QUANTICO       LGT RAIN  53  48  83 W5        29.96F
FREDERICKSBRG* HVY RAIN  50  50  99 SW3       29.95S
STAFFORD*      RAIN      49  47  93 CALM      30.00R
WARRENTON      NOT AVBL
CULPEPER*      CLOUDY    54  42  66 CALM      29.94F
MANASSAS*      CLOUDY    53  45  74 S6        29.93F
LEESBURG*      CLOUDY    50  43  76 SW3       29.93S
WINCHESTER     CLOUDY    46  41  81 W3        29.93R
FRONT ROYAL*   CLOUDY    48  43  81 CALM      29.91S
LURAY*         CLOUDY    54  45  71 S8        29.93S
$$

VAZ048-049-060>072-079>083-220900-
CENTRAL AND SOUTH CENTRAL VIRGINIA

CITY           SKY/WX    TMP DP  RH WIND       PRES   REMARKS
RICHMOND       CLOUDY    51  49  92 W12       29.97S
CHESTERFIELD*  NOT AVBL
PETERSBURG*    DRIZZLE  N/A N/A N/A W6        29.97R
HANOVER        CLOUDY    52  52 100 CALM      29.98R
TAPPAHANNOCK*    N/A    N/A N/A N/A MISG        N/A
QUINTON*       FOG       49  49 100 MISG      29.95F VSB 1/2
CHARLOTTSVILLE CLOUDY    50  42  74 SW3       29.93F
GORDONSVILLE*  CLOUDY    47  46  96 CALM      29.94F
ORANGE*        CLOUDY    48  45  87 CALM      29.94F
LOUISA*        RAIN      49  48  97 S3        29.99F FOG
BUMPASS*       CLOUDY    46  46 100 SW6       29.96F
FARMVILLE*     CLOUDY    50  50 100 CALM      29.94F
CREWE*         CLOUDY    49  49 100 CALM      29.95F
FORT PICKETT*  NOT AVBL
CHASE CITY*    CLOUDY    49  49 100 CALM      29.96F
CLARKSVILLE*   PTSUNNY   48  48 100 CALM      29.95F
SOUTH HILL*    CLOUDY    51  51 100 CALM      30.01F
LAWRENCEVILLE* PTSUNNY   50  49  97 W6        29.96S
EMPORIA*       CLOUDY    48  48 100 CALM      29.96F
$$

VAZ088>098-220900-
SOUTHEAST VIRGINIA

CITY           SKY/WX    TMP DP  RH WIND       PRES   REMARKS
NORFOLK        CLOUDY    61  58  90 S7        29.94F
VIRGINIA BEACH CLOUDY    61  57  87 SE7       29.93F
NORFOLK NAVAL  CLOUDY    61  56  83 SE5       29.95
WEST POINT*    CLOUDY    52  51  95 CALM      29.96F
SALUDA*        PTSUNNY   55  55 100 CALM      29.95F
NEWPORT NEWS   CLOUDY    58  54  86 SE3       29.94F
LANGLEY AFB    MOCLDY    59  56  91 CALM      29.94F
FORT EUSTIS    CLOUDY    56  53  91 SE6       29.91F
WILLIAMSBURG*  CLOUDY    55  52  88 CALM      29.96F
HR EXEC AP*    NOT AVBL
FRANKLIN*      CLOUDY    52  49  91 CALM      29.94F
US460-WAKEFLD  CLOUDY    53  51  93 CALM      29.95F
$$

VAZ020-022-025-037-045-220900-
WEST CENTRAL AND SOUTHWEST VIRGINIA

CITY           SKY/WX    TMP DP  RH WIND       PRES   REMARKS
STAUNTON*      CLOUDY    46  42  88 S5        29.96S
WAYNESBORO*    CLOUDY    51  46  82 SW8       29.94S
HOT SPRINGS VA MOCLDY    46  39  77 W14       29.95S
LYNCHBURG      MOCLDY    44  44 100 CALM      29.95F FOG
DANVILLE       CLOUDY    48  48 100 W3        29.96F
SOUTH BOSTON*  CLOUDY    50  48  95 CALM      29.97S
MARTINSVILLE   FOG       44  44  99 CALM      29.99F VSB 3/4
ROANOKE        CLEAR     47  44  90 NW6       29.98F
BLACKSBURG     MOCLDY    38  38  99 CALM      30.00F FOG
DUBLIN*        CLOUDY    43  43 100 W5        30.00S
MARION*        CLOUDY    44  42  90 W8        30.02S
HILLSVILLE*    CLEAR     45  44  96 W3        29.97F
RICHLANDS*     CLOUDY    45  43  93 CALM      30.04R
WISE*          CLOUDY    45  32  61 W6        30.05R
ABINGDON*      CLOUDY    49  46  86 W5        30.03R
$$

MDZ021>025-VAZ099-100-220900-
SOUTHERN MARYLAND AND THE DELMARVA PENINSULA

CITY           SKY/WX    TMP DP  RH WIND       PRES   REMARKS
PATUXENT RIVER MOCLDY    56  54  93 S3        29.94F
BAY BRIDGE APT CLOUDY    52  46  82 SE5       29.95F
LEONARDTOWN    CLOUDY    54  52  94 CALM      29.96F
DOVER          MOCLDY    53  53 100 S6        29.95F
GEORGETOWN     LGT RAIN  58  53  84 W5        29.98F
EASTON         RAIN      55  52  92 CALM      29.99F
CAMBRIDGE        N/A     57  55  94 S9        29.96F
SALISBURY      LGT RAIN  58  57  97 S5        29.97F
OCEAN CITY     CLOUDY    57  56  96 SW6       29.97F
WALLOPS ISLAND CLOUDY    59  57  93 S7        29.97F
ACCOMACK*      CLOUDY    61  57  87 SE10      29.95F
$$

NCZ012>017-030>032-220900-
NORTH CENTRAL AND EASTERN NORTH CAROLINA

CITY           SKY/WX    TMP DP  RH WIND       PRES   REMARKS
ROANOKE RAPIDS FAIR      50  50 100 CALM      29.95F
RALEIGH        CLOUDY    52  51  97 CALM      29.96F
ELIZABETH CITY CLOUDY    59  59 100 CALM      29.94F
AHOSKIE*       CLOUDY    51  49  93 CALM      29.94F
EDENTON*       DRIZZLE   56  54  95 CALM      29.94F
CURRITUCK*     LGT RAIN  62  58  89 CALM      29.95F
KILL DEVIL HLS HVY RAIN N/A N/A N/A CALM      29.95F
MANTEO         RAIN      60  60  99 NE5       29.96F VSB 1
CAPE HATTERAS  LGT RAIN  66  63  90 CALM      29.91F
TARBORO*       NOT AVBL
GOLDSBORO      CLOUDY    55  52  89 W3        29.91F
WASHINGTON     LGT RAIN  56  55  96 CALM      29.94F
GREENVILLE     CLOUDY    54  52  94 CALM      29.95F
NEW BERN       RAIN      55  55 100 E3        29.94F FOG
WILMINGTON     CLOUDY    60  59  96 NE6       29.91F FOG
$$

VAZ048-220900-
ELSEWHERE

CITY           SKY/WX    TMP DP  RH WIND       PRES   REMARKS
HARRISBURG PA  CLOUDY    39  36  89 NW3       29.92F
BALTIMORE      CLOUDY    53  46  77 S5        29.93F
ANNAPOLIS      CLOUDY    54  49  83 S6        29.94F
ANDREWS AFB    CLOUDY    53  45  74 S8        29.93F
PHILADELPHIA   CLOUDY    53  46  77 S6        29.96F
GREENSBORO     CLOUDY    50  49  96 CALM      29.96F
ROCKY MOUNT    CLOUDY    52  52 100 CALM      29.93F
$$

VAZ100-220900-
MARINE

STATION/POSITION TIME  TEMP    WIND        PRES    WAVE   SWELL
                       AIR SEA DIR/SP/G            HT/PER HT/PER
                 (UTC) (F)     (DEG/KT/KT) (MB)    (FT/S) (FT/S)
BRANDYWINE LGT   0736   57     230/ 19/ 26 1015.7S
CAPE MAY NJ      0748   56 49  290/ 14/ 18 1015.0R
LEWES DE         0748   59 52  270/  4/  5 1014.9R
15NM E FENWICK I 0750   61 57  150/ 14/ 16 1015.1F   3/ 4
OCEAN-CITY-INLET 0748   58 53  180/  5/ 10 1014.8F
WACHAPREAGUE VA  0748   57 51  200/  3/  4 1014.4F
THOMAS POINT MD  0800   54 53  170/ 10/ 11   N/A
GOOSES REEF MD   0750   54     260/  6/  6 1014.8F
COVE POINT MD    0748   57     210/ 11/ 14 1014.5F
SOLOMONS ISLAND  0736   56 54  210/  8/  9 1013.8F
BISHOPS HEAD MD  0748   54 49   40/  4/  4 1015.0F
PINEY POINT MD   0748          160/  7/  7   N/A
POTOMAC MD       0750   54     140/  4/ 16 1013.9F
CAMBRIDGE MD     0748   56 50              1014.9F
LEWISETTA VA     0748   53 53  150/  7/  8 1013.9F
RAPPAHANNOCK LGT 0748          130/ 12/ 14 1014.7F
STINGRAY PT      0750   56     190/  6/  6 1014.5F
YORK RVR RNG VA  0748   55     150/  5/  5 1014.6F
YORKTOWN VA      0748   59 54  150/  4/  5 1013.6F
JAMESTOWN VA     0750          320/  4/  6   N/A
DOMINION TERM VA 0748   58     120/  5/  5 1014.1F
KIPTOPEKE VA     0748      54  150/ 13/ 16   N/A
CAPE HENRY VA    0748   60     150/  9/ 11   N/A
WILLOUBY STN VA  0742   60     130/  7/  8 1013.8F
S CRANEY ISL VA  0748   58     180/  4/  5 1013.9F
CAPE HENRY BUOY  0800      56                N/A     2/ 4
1ST LANDING BUOY 0750   57     140/  8/  8 1014.2F
CAPE CHARLES BUO 0751      56                N/A     2/ 4
64NM E OF VA BCH 0750   63 63  120/ 10/ 12 1015.2F   4/ 5   3/ 5
DUCK PIER NC     0748   62 60  100/  4/  4 1013.6F
44100 DUCK FRF   0745      61                N/A     3/ 5
44056 DUCK FRF   0800      61                N/A     2/ 5
OREGON INLET NC  0742   61 54  270/ 10/ 19 1013.9F
HATTERAS NC      0748   65 59   10/  4/  5 1012.6F
DIAMOND SHLS NC  0800   69 75  120/ 21/ 27 1012.5
CAPE LOOKOUT NC  0800          310/  3/  3 1013.9R
$$




USA.gov is the U.S. government's official web portal to all federal, state and local government web resources and services.